DELTA 1 DEB

Satellite information

Favourite Embed

Satellite Type and Status

DEBRISIN ORBIT

Key statistics

Satellite DELTA 1 DEB at a glance.

Uptime

17292

Days in orbit

Revolutions

≈ 13.9

Per day

Orbit

SSO

Sun Synchronous Orbit

Inclination

99.5

Latest

Satellite identification and parameters

Extended collection of information and parameters for DELTA 1 DEB.

Object identification

Identified? True

Debris? True

Object name: DELTA 1 DEB

International designator: 1978-026GE

Object number (NORAD): 14464

Object ID (CCSDS): 14464

Country: UNITED STATES OF AMERICA (US)

Current information (Y/N): Y

RCS size: SMALL

Orbital parameters

Period: 103.276 minutes

Inclination: 99.4613 deg

SMA: 7291.672 km

Apoapsis: 958.2 km

Periapsis: 868.874 km

RAAN: 40.9078 deg

Eccentricy: 0.0061252

Argument of periapsis: 26.6043 deg

Mean anomaly: 103.3267 deg

Mean motion: 13.94318891 rev/day

Mean motion (dot): 0.0000014 rev/day2

B* drag term: 0.00013848 1/REarth

Two-line elements (TLE)

Creation date: July 6, 2025, 6:05 p.m.

Reference frame: TEME

Reference center: EARTH

Epoch: July 6, 2025, 2:30 a.m. UTC

TLE line 0: 0 DELTA 1 DEB

TLE line 1: 1 14464U 78026GE 25187.10471324 .00000140 00000-0 13848-3 0 9999

TLE line 2: 2 14464 99.4613 40.9078 0061252 26.6043 103.3267 13.94318891172502

Live tracking on map

Real-time ground track for satellite DELTA 1 DEB.

In-orbit conjunctions

A list of the most updated potential collisions computed for object DELTA 1 DEB.

Target Orbit TCA Probability of collision Miss distance Type
CZ-6A DEB SSO 2025-03-30 12:49:13 0.0001021622 114.0 (m) DEBRIS
COSMOS 1375 DEB LEO 2025-03-03 17:04:00 0.000180358 268.0 (m) DEBRIS
FENGYUN 1C DEB SSO 2024-09-08 04:18:12 0.0003249677 64.0 (m) DEBRIS

Associated space launch

Earth observation satellite

DELTA 1 DEB was lifted into orbit during the mission ‘Delta 2910 | Landsat 3’, on board a Delta 2910 space rocket.

The launch took place on March 5, 1978, 5:54 p.m. from Space Launch Complex 2W.

For more information about the launch, click the button.

Launch to space Delta 2910 | Landsat 3
Delta 2910 | Landsat 3

Agency: N/A

Status: Launch Successful

Launch date: March 5, 1978, 5:54 p.m. UTC

Rocket: Delta 2910

Launch pad: Space Launch Complex 2W

Location: Vandenberg SFB, CA, USA

...

Latest news about this satellite

There are no fresh news available about this satellite. Check back as we update our databases every day.


Newsletter sign-up

Weekly statistics, charts and insights to help you stay on top of the space industry.